Previsão horária em Juiz de Fora

Hoje, 21 Junho, Segunda-feira

Tempo Temperatura Precipitação Vento Pressão Humidade
00:00 +15°C° 0 mm 2 m/s 701 mmHg 96%
01:00 +16°C° 0 mm 2 m/s 701 mmHg 94%
02:00 +16°C° 0 mm 2 m/s 701 mmHg 93%
03:00 +16°C° 0 mm 2 m/s 701 mmHg 92%
04:00 +15°C° 0 mm 2 m/s 701 mmHg 92%
05:00 +15°C° 0 mm 2 m/s 701 mmHg 92%
06:00 +14°C° 0 mm 1 m/s 701 mmHg 92%
07:00 +15°C° 0 mm 2 m/s 702 mmHg 85%
08:00 +17°C° 0 mm 2 m/s 702 mmHg 79%
09:00 +18°C° 0 mm 2 m/s 703 mmHg 72%
10:00 +19°C° 0 mm 2 m/s 703 mmHg 66%
11:00 +21°C° 0 mm 2 m/s 703 mmHg 60%
12:00 +23°C° 0 mm 2 m/s 703 mmHg 55%
13:00 +23°C° 0 mm 2 m/s 702 mmHg 54%
14:00 +24°C° 0 mm 3 m/s 702 mmHg 52%
15:00 +24°C° 0 mm 3 m/s 701 mmHg 51%
16:00 +21°C° 0 mm 2 m/s 701 mmHg 59%
17:00 +20°C° 0 mm 1 m/s 701 mmHg 67%
18:00 +16°C° 0 mm 1 m/s 701 mmHg 74%
19:00 +16°C° 0 mm 1 m/s 701 mmHg 75%
20:00 +16°C° 0 mm 1 m/s 702 mmHg 75%
21:00 +15°C° 0 mm 1 m/s 702 mmHg 76%
22:00 +15°C° 0 mm 1 m/s 702 mmHg 79%
23:00 +14°C° 0 mm 1 m/s 702 mmHg 82%

Amanhã, 22 Junho, Terça-feira

Tempo Temperatura Precipitação Vento Pressão Humidade
00:00 +14°C° 0 mm 1 m/s 702 mmHg 85%
01:00 +13°C° 0 mm 1 m/s 702 mmHg 86%
02:00 +13°C° 0 mm 1 m/s 702 mmHg 88%
03:00 +12°C° 0 mm 0 m/s 701 mmHg 89%
04:00 +12°C° 0 mm 0 m/s 701 mmHg 90%
05:00 +11°C° 0 mm 0 m/s 701 mmHg 91%
06:00 +11°C° 0 mm 0 m/s 701 mmHg 91%
07:00 +13°C° 0 mm 0 m/s 702 mmHg 84%
08:00 +16°C° 0 mm 1 m/s 703 mmHg 76%
09:00 +19°C° 0 mm 1 m/s 703 mmHg 69%
10:00 +21°C° 0 mm 1 m/s 703 mmHg 64%
11:00 +22°C° 0 mm 1 m/s 703 mmHg 60%
12:00 +24°C° 0 mm 1 m/s 703 mmHg 56%
13:00 +23°C° 0 mm 1 m/s 702 mmHg 59%
14:00 +23°C° 0 mm 1 m/s 702 mmHg 62%
15:00 +22°C° 0 mm 1 m/s 701 mmHg 66%
16:00 +21°C° 0.2 mm 1 m/s 701 mmHg 73%
17:00 +19°C° 0.2 mm 1 m/s 701 mmHg 81%
18:00 +18°C° 0.2 mm 1 m/s 701 mmHg 89%
19:00 +16°C° 0 mm 1 m/s 702 mmHg 90%
20:00 +16°C° 0 mm 1 m/s 702 mmHg 91%
21:00 +15°C° 0 mm 1 m/s 702 mmHg 92%
22:00 +15°C° 0 mm 1 m/s 702 mmHg 94%
23:00 +14°C° 0 mm 1 m/s 703 mmHg 95%

Depois de amanhã, 23 Junho, Quarta-feira

Tempo Temperatura Precipitação Vento Pressão Humidade
00:00 +14°C° 0 mm 1 m/s 703 mmHg 97%
01:00 +14°C° 0 mm 1 m/s 703 mmHg 97%
02:00 +13°C° 0 mm 1 m/s 703 mmHg 98%
03:00 +13°C° 0 mm 1 m/s 703 mmHg 98%
04:00 +14°C° 0 mm 1 m/s 703 mmHg 98%
05:00 +14°C° 0 mm 1 m/s 703 mmHg 98%
06:00 +14°C° 0 mm 1 m/s 703 mmHg 98%
07:00 +15°C° 0 mm 1 m/s 703 mmHg 93%
08:00 +16°C° 0 mm 1 m/s 704 mmHg 89%
09:00 +18°C° 0 mm 1 m/s 704 mmHg 84%
10:00 +18°C° 0 mm 2 m/s 704 mmHg 76%
11:00 +20°C° 0 mm 2 m/s 704 mmHg 67%
12:00 +21°C° 0 mm 2 m/s 704 mmHg 59%
13:00 +21°C° 0 mm 2 m/s 704 mmHg 57%
14:00 +22°C° 0 mm 1 m/s 703 mmHg 55%
15:00 +22°C° 0 mm 1 m/s 703 mmHg 53%
16:00 +21°C° 0 mm 1 m/s 703 mmHg 59%
17:00 +19°C° 0 mm 1 m/s 703 mmHg 65%
18:00 +16°C° 0 mm 1 m/s 703 mmHg 70%
19:00 +15°C° 0 mm 1 m/s 703 mmHg 75%
20:00 +14°C° 0 mm 1 m/s 703 mmHg 80%
21:00 +13°C° 0 mm 1 m/s 703 mmHg 84%
22:00 +13°C° 0 mm 1 m/s 703 mmHg 86%
23:00 +12°C° 0 mm 1 m/s 703 mmHg 88%

24 Junho, Quinta-feira

Tempo Temperatura Precipitação Vento Pressão Humidade
00:00 +11°C° 0 mm 0 m/s 703 mmHg 90%
01:00 +11°C° 0 mm 0 m/s 703 mmHg 91%
02:00 +10°C° 0 mm 0 m/s 703 mmHg 92%
03:00 +10°C° 0 mm 0 m/s 702 mmHg 93%
04:00 +10°C° 0 mm 0 m/s 702 mmHg 94%
05:00 +11°C° 0 mm 1 m/s 702 mmHg 95%
06:00 +11°C° 0 mm 1 m/s 702 mmHg 96%
07:00 +12°C° 0 mm 1 m/s 703 mmHg 92%
08:00 +14°C° 0 mm 2 m/s 703 mmHg 88%
09:00 +15°C° 0 mm 2 m/s 703 mmHg 83%
10:00 +16°C° 0 mm 2 m/s 703 mmHg 78%
11:00 +18°C° 0 mm 2 m/s 703 mmHg 72%
12:00 +19°C° 0 mm 2 m/s 703 mmHg 67%
13:00 +20°C° 0 mm 2 m/s 702 mmHg 64%
14:00 +21°C° 0 mm 2 m/s 702 mmHg 60%
15:00 +23°C° 0 mm 2 m/s 701 mmHg 57%
16:00 +20°C° 0 mm 2 m/s 701 mmHg 65%
17:00 +18°C° 0 mm 2 m/s 701 mmHg 73%
18:00 +16°C° 0 mm 1 m/s 701 mmHg 82%
19:00 +16°C° 0 mm 1 m/s 701 mmHg 84%
20:00 +15°C° 0 mm 1 m/s 701 mmHg 87%
21:00 +14°C° 0 mm 1 m/s 701 mmHg 90%
22:00 +14°C° 0 mm 1 m/s 701 mmHg 91%
23:00 +14°C° 0 mm 1 m/s 701 mmHg 91%

25 Junho, Sexta-feira

Tempo Temperatura Precipitação Vento Pressão Humidade
00:00 +14°C° 0 mm 1 m/s 701 mmHg 92%
01:00 +13°C° 0 mm 1 m/s 700 mmHg 93%
02:00 +13°C° 0 mm 1 m/s 700 mmHg 93%
03:00 +13°C° 0 mm 1 m/s 700 mmHg 94%
04:00 +13°C° 0 mm 1 m/s 700 mmHg 94%
05:00 +13°C° 0 mm 1 m/s 700 mmHg 94%
06:00 +13°C° 0 mm 1 m/s 700 mmHg 94%
07:00 +15°C° 0 mm 1 m/s 701 mmHg 86%
08:00 +18°C° 0 mm 1 m/s 701 mmHg 79%
09:00 +20°C° 0 mm 1 m/s 702 mmHg 71%
10:00 +22°C° 0 mm 1 m/s 702 mmHg 64%
11:00 +24°C° 0 mm 1 m/s 702 mmHg 57%
12:00 +26°C° 0 mm 1 m/s 702 mmHg 50%
13:00 +26°C° 0 mm 1 m/s 701 mmHg 50%
14:00 +27°C° 0 mm 2 m/s 701 mmHg 49%
15:00 +27°C° 0 mm 2 m/s 701 mmHg 49%
16:00 +24°C° 0 mm 1 m/s 701 mmHg 58%
17:00 +22°C° 0 mm 1 m/s 700 mmHg 67%
18:00 +20°C° 0 mm 1 m/s 700 mmHg 76%
19:00 +19°C° 0 mm 1 m/s 701 mmHg 78%
20:00 +18°C° 0 mm 1 m/s 701 mmHg 80%
21:00 +16°C° 0 mm 0 m/s 701 mmHg 82%
22:00 +15°C° 0 mm 0 m/s 701 mmHg 84%
23:00 +15°C° 0 mm 0 m/s 701 mmHg 85%

26 Junho, Sábado

Tempo Temperatura Precipitação Vento Pressão Humidade
00:00 +15°C° 0 mm 0 m/s 701 mmHg 87%
01:00 +14°C° 0 mm 0 m/s 701 mmHg 88%
02:00 +14°C° 0 mm 0 m/s 700 mmHg 89%
03:00 +14°C° 0 mm 0 m/s 700 mmHg 91%
04:00 +13°C° 0 mm 0 m/s 700 mmHg 91%
05:00 +14°C° 0 mm 1 m/s 701 mmHg 92%
06:00 +14°C° 0 mm 1 m/s 701 mmHg 93%
07:00 +16°C° 0 mm 1 m/s 701 mmHg 85%
08:00 +19°C° 0 mm 1 m/s 702 mmHg 77%
09:00 +21°C° 0 mm 1 m/s 703 mmHg 69%
10:00 +21°C° 0 mm 2 m/s 703 mmHg 61%
11:00 +24°C° 0 mm 2 m/s 703 mmHg 54%
12:00 +25°C° 0 mm 3 m/s 702 mmHg 46%
13:00 +26°C° 0 mm 3 m/s 702 mmHg 44%
14:00 +26°C° 0 mm 3 m/s 702 mmHg 42%
15:00 +26°C° 0 mm 3 m/s 701 mmHg 40%
16:00 +23°C° 0 mm 2 m/s 701 mmHg 49%
17:00 +20°C° 0 mm 2 m/s 701 mmHg 59%
18:00 +18°C° 0 mm 1 m/s 701 mmHg 68%
19:00 +16°C° 0 mm 1 m/s 701 mmHg 69%
20:00 +16°C° 0 mm 1 m/s 701 mmHg 71%
21:00 +15°C° 0 mm 1 m/s 702 mmHg 73%
22:00 +14°C° 0 mm 1 m/s 702 mmHg 74%
23:00 +14°C° 0 mm 1 m/s 701 mmHg 75%
Mostrar mais

Necessitamos do seu Consentimento

A Meteoprog e os seus Fornecedores de Serviços podem armazenar e aceder a dados pessoais como cookies, identificadores do dispositivo ou outras tecnologias semelhantes existentes no seu dispositivo e processar estes dados para personalizar conteúdos e anúncios, assim como funcionalidades nas redes sociais e análise de tráfego.

  • Armazenar e/ou aceder a informações no seu dispositivo

    Os cookies, identificadores do dispositivo ou outras informações podem ser armazenados ou acedidos no seu dispositivo, para os fins acima indicados.

  • Anúncios e conteúdos personalizados, medição de anúncios e conteúdos, dados sobre o público-alvo e desenvolvimento de produtos

    Os anúncios e os conteúdos podem ser personalizados com base num perfil. Podem ser adicionados dados adicionais para uma maior personalização dos anúncios e dos conteúdos. A eficácia dos anúncios e dos conteúdos pode ser medida. Podem ser obtidas informações sobre o público que visualizou os anúncios e os conteúdos. Estes dados podem ser usados para desenvolver ou melhorar sistemas, softwares ou a experiência do utilizador.

Ao clicar em "Eu concordo”, permitirá o uso de cookies, identificadores do dispositivo e web beacons mencionados ou outras tecnologias semelhantes. As configurações do navegador do seu dispositivo podem ser alteradas.

Para certos fins, podem ser invocados interesses legítimos ao invés de consentimento. Pode ler mais informação sobre este assunto na nossa Política de Privacidade e Cookies.